EW0393 Weather Reports


time (UTC)temp
C
wind
direction
speed
KPH
gust
KPH
rain 1hr
cm
rain 24hr
cm
rain mn
cm
humidity
%
barometer
mb
20260510130903 12 28 16.1 27.4 0.00 0.00 0.00 64 1016.4
20260510130004 13 15 16.1 27.4 0.00 0.00 0.00 65 1016.5
20260510125405 12 11 16.1 29.0 0.00 0.00 0.00 65 1016.5
20260510124503 13 21 17.7 29.0 0.00 0.00 0.00 64 1016.7
20260510123604 13 17 14.5 29.0 0.00 0.00 0.00 66 1016.7
20260510122703 12 20 17.7 29.0 0.00 0.00 0.00 67 1017.0
20260510122020 12 13 17.7 29.0 0.00 0.00 0.00 67 1016.8
20260510121121 12 20 16.1 29.0 0.00 0.00 0.00 68 1017.0
20260510120219 12 18 17.7 29.0 0.00 0.00 0.00 69 1017.1
20260510115403 12 18 16.1 29.0 0.00 0.00 0.00 70 1017.1
20260510114717 11 26 17.7 29.0 0.00 0.00 0.00 70 1017.3
20260510113603 12 23 17.7 29.0 0.00 0.00 0.00 69 1017.4
20260510112703 12 20 16.1 27.4 0.00 0.00 0.00 68 1017.4
20260510111803 12 24 16.1 25.7 0.00 0.00 0.00 69 1017.4
20260510110903 12 8 16.1 24.1 0.00 0.00 0.00 71 1017.4
20260510110004 12 22 12.9 20.9 0.00 0.00 0.00 71 1017.4
20260510105621 12 23 14.5 20.9 0.00 0.00 0.00 71 1017.4
20260510104503 12 30 12.9 27.4 0.00 0.00 0.00 72 1017.5
20260510103820 12 32 16.1 29.0 0.00 0.00 0.00 72 1017.5
20260510102703 11 20 17.7 29.0 0.00 0.00 0.00 74 1017.4
20260510102020 11 23 16.1 29.0 0.00 0.00 0.00 74 1017.5
20260510100903 12 17 17.7 30.6 0.00 0.00 0.00 74 1017.5
20260510100004 11 20 16.1 30.6 0.00 0.00 0.00 75 1017.6
20260510095403 11 20 17.7 30.6 0.00 0.00 0.00 75 1017.6
20260510094503 11 22 16.1 24.1 0.00 0.00 0.00 76 1017.6
20260510093603 11 16 14.5 25.7 0.00 0.00 0.00 76 1017.7
20260510092703 11 18 14.5 25.7 0.00 0.00 0.00 75 1017.9
20260510091803 11 23 17.7 27.4 0.00 0.00 0.00 74 1017.9
20260510090903 11 24 16.1 27.4 0.00 0.00 0.00 75 1017.9
20260510090003 11 23 14.5 29.0 0.00 0.00 0.00 75 1018.0
20260510085403 11 32 16.1 29.0 0.00 0.00 0.00 75 1017.9
20260510084503 11 31 16.1 29.0 0.00 0.00 0.00 74 1017.9
20260510083822 11 25 17.7 29.0 0.00 0.00 0.00 74 1018.0
20260510082919 11 22 14.5 25.7 0.00 0.00 0.00 76 1017.9
20260510081803 11 27 14.5 30.6 0.00 0.00 0.00 76 1017.9
20260510080904 11 28 16.1 30.6 0.00 0.00 0.00 76 1017.9
20260510080004 11 19 17.7 29.0 0.00 0.00 0.00 77 1017.9
20260510075617 11 17 16.1 29.0 0.00 0.00 0.00 78 1018.0
20260510074503 11 20 16.1 27.4 0.00 0.00 0.00 79 1017.9
20260510073817 11 17 14.5 27.4 0.00 0.00 0.00 81 1018.2
20260510072703 11 23 14.5 25.7 0.00 0.00 0.00 81 1018.1
20260510071803 11 19 14.5 27.4 0.00 0.00 0.00 81 1018.0
20260510070903 11 15 16.1 27.4 0.00 0.00 0.00 81 1017.9
20260510070004 11 14 14.5 27.4 0.00 0.00 0.00 82 1017.9
20260510065403 11 15 16.1 29.0 0.00 0.00 0.00 83 1017.9
20260510064503 11 4 16.1 29.0 0.00 0.00 0.00 84 1017.8
20260510063603 10 14 16.1 25.7 0.00 0.00 0.00 85 1017.9
20260510062920 10 5 16.1 25.7 0.00 0.00 0.00 85 1017.8
20260510061803 10 9 14.5 24.1 0.00 0.00 0.00 86 1017.7
20260510060903 10 8 14.5 22.5 0.00 0.00 0.00 87 1017.5
20260510060004 10 359 12.9 22.5 0.00 0.00 0.00 88 1017.5
20260510055403 10 357 12.9 22.5 0.00 0.00 0.00 88 1017.5
20260510054503 10 357 11.3 17.7 0.00 0.00 0.00 89 1017.6
20260510053603 9 358 9.7 16.1 0.00 0.00 0.00 89 1017.5
20260510052703 8 359 9.7 16.1 0.00 0.00 0.00 90 1017.4
20260510052018 8 3 9.7 16.1 0.00 0.00 0.00 89 1017.3
20260510051120 8 360 9.7 17.7 0.00 0.00 0.00 89 1017.4
20260510050218 8 357 11.3 22.5 0.00 0.00 0.00 89 1017.3
20260510045403 8 12 11.3 22.5 0.00 0.00 0.00 90 1017.3
20260510044503 8 22 11.3 19.3 0.00 0.00 0.00 90 1017.3
20260510043603 8 22 9.7 17.7 0.00 0.00 0.00 90 1017.3
20260510042703 8 20 9.7 17.7 0.00 0.00 0.00 89 1017.3
20260510041804 8 18 9.7 16.1 0.00 0.00 0.00 89 1017.4
20260510040903 8 18 8.0 17.7 0.00 0.00 0.00 89 1017.5
20260510040004 8 9 9.7 17.7 0.00 0.00 0.00 89 1017.6
20260510035403 8 3 11.3 22.5 0.00 0.00 0.00 89 1017.6
20260510034717 8 1 11.3 22.5 0.00 0.00 0.00 89 1017.7
20260510033820 8 1 12.9 20.9 0.00 0.00 0.00 88 1017.7
20260510032703 8 358 14.5 20.9 0.00 0.00 0.00 88 1017.9
20260510031803 8 356 12.9 20.9 0.00 0.00 0.00 87 1017.9
20260510030903 8 357 12.9 19.3 0.00 0.00 0.00 87 1017.8
20260510030004 9 9 12.9 25.7 0.00 0.00 0.00 86 1017.7
20260510025404 9 16 12.9 25.7 0.00 0.00 0.00 86 1017.6
20260510024718 9 17 14.5 25.7 0.00 0.00 0.00 86 1017.8
20260510023603 10 11 14.5 24.1 0.00 0.00 0.00 87 1018.1
20260510022703 10 3 14.5 24.1 0.00 0.00 0.00 88 1018.0
20260510021803 9 2 12.9 22.5 0.00 0.00 0.00 88 1017.9
20260510020903 9 360 11.3 19.3 0.00 0.00 0.00 88 1018.0
20260510020004 9 358 11.3 19.3 0.00 0.00 0.00 87 1017.8
20260510015621 9 360 11.3 19.3 0.00 0.00 0.00 87 1017.8
20260510014503 9 354 11.3 19.3 0.00 0.00 0.00 86 1017.6
20260510013821 10 356 12.9 24.1 0.00 0.00 0.00 86 1017.8
20260510012703 10 5 16.1 24.1 0.00 0.00 0.00 87 1017.9
20260510011803 10 6 12.9 24.1 0.00 0.00 0.00 87 1017.8
20260510011118 10 1 14.5 24.1 0.00 0.00 0.00 87 1018.0
20260510010220 10 2 14.5 24.1 0.00 0.00 0.00 87 1018.0
20260510005403 10 4 11.3 20.9 0.00 0.00 0.00 87 1018.0
20260510004719 10 6 9.7 17.7 0.00 0.00 0.00 87 1018.1
20260510003603 10 12 9.7 19.3 0.00 0.00 0.00 88 1018.0
20260510002703 10 14 9.7 20.9 0.00 0.00 0.00 88 1018.0
20260510001803 10 12 12.9 20.9 0.00 0.00 0.00 87 1018.1
20260510000903 10 10 11.3 20.9 0.00 0.00 0.00 88 1018.1
20260510000004 10 3 11.3 20.9 0.00 0.00 0.00 87 1018.1
20260509235403 10 2 12.9 19.3 0.00 0.00 0.00 87 1018.2
20260509234503 10 9 11.3 19.3 0.00 0.00 0.00 88 1018.0
20260509233603 9 8 11.3 19.3 0.00 0.00 0.00 87 1018.0
20260509232703 9 358 11.3 19.3 0.00 0.00 0.00 87 1018.0
20260509232017 9 353 9.7 17.7 0.00 0.00 0.00 86 1018.1
20260509230903 9 4 6.4 11.3 0.00 0.00 0.00 85 1018.3
20260509230009 9 11 4.8 12.9 0.00 0.00 0.00 84 1018.3
20260509225618 9 12 4.8 12.9 0.00 0.00 0.00 84 1018.4
20260509224503 10 21 4.8 12.9 0.00 0.00 0.00 84 1018.2
20260509223818 10 26 6.4 9.7 0.00 0.00 0.00 83 1018.2
20260509222703 10 32 6.4 12.9 0.00 0.00 0.00 82 1018.1
20260509221803 10 22 6.4 12.9 0.00 0.00 0.00 82 1018.1
20260509220903 10 12 6.4 12.9 0.00 0.00 0.00 81 1018.0
20260509220003 10 28 3.2 6.4 0.00 0.00 0.00 79 1017.9
20260509215403 10 33 1.6 6.4 0.00 0.00 0.00 79 1017.9
20260509214504 10 32 1.6 6.4 0.00 0.00 0.00 77 1017.9
20260509213818 10 28 1.6 6.4 0.00 0.00 0.00 75 1017.8
20260509212703 10 30 1.6 4.8 0.00 0.00 0.00 73 1017.7
20260509211803 10 30 1.6 4.8 0.00 0.00 0.00 73 1017.7
20260509210903 11 31 1.6 8.0 0.00 0.00 0.00 71 1017.7
20260509210003 11 39 3.2 8.0 0.00 0.00 0.00 70 1017.6
20260509205403 11 35 3.2 9.7 0.00 0.00 0.00 69 1017.6
20260509204503 11 26 3.2 9.7 0.00 0.00 0.00 68 1017.6
20260509203819 11 28 3.2 9.7 0.00 0.00 0.00 67 1017.6
20260509202703 11 27 1.6 8.0 0.00 0.00 0.00 65 1017.4
20260509201803 11 24 1.6 8.0 0.00 0.00 0.00 64 1017.5
20260509201121 11 15 3.2 8.0 0.00 0.00 0.00 63 1017.3
20260509200004 12 27 4.8 8.0 0.00 0.00 0.00 61 1017.3
20260509195403 12 37 3.2 6.4 0.00 0.00 0.00 60 1017.5
20260509194503 13 48 1.6 6.4 0.00 0.00 0.00 59 1017.5
20260509193820 13 47 3.2 9.7 0.00 0.00 0.00 58 1017.4
20260509192703 13 52 4.8 11.3 0.00 0.00 0.00 57 1016.9
20260509191803 14 46 4.8 11.3 0.00 0.00 0.00 55 1017.0
20260509191117 14 48 6.4 11.3 0.00 0.00 0.00 55 1017.1
20260509190004 15 52 4.8 9.7 0.00 0.00 0.00 53 1017.1
20260509185403 15 52 4.8 11.3 0.00 0.00 0.00 53 1017.0
20260509184503 15 54 6.4 11.3 0.00 0.00 0.00 52 1016.9
20260509183820 15 52 6.4 17.7 0.00 0.00 0.00 51 1016.9
20260509182703 15 53 8.0 19.3 0.00 0.00 0.00 51 1016.8
20260509182020 15 42 8.0 19.3 0.00 0.00 0.00 50 1016.7
20260509181117 16 38 9.7 19.3 0.00 0.00 0.00 49 1016.7
20260509180220 16 54 9.7 16.1 0.00 0.00 0.00 48 1016.7
20260509175403 16 54 11.3 19.3 0.00 0.00 0.00 46 1016.9
20260509174503 16 52 9.7 19.3 0.00 0.00 0.00 46 1017.1
20260509173603 17 56 11.3 17.7 0.00 0.00 0.00 45 1017.1
20260509172703 17 56 9.7 17.7 0.00 0.00 0.00 44 1017.0
20260509171803 17 51 9.7 16.1 0.00 0.00 0.00 45 1017.1
20260509171118 17 49 9.7 16.1 0.00 0.00 0.00 45 1017.1
20260509170003 17 41 9.7 20.9 0.00 0.00 0.00 44 1017.0
20260509165403 17 49 9.7 20.9 0.00 0.00 0.00 43 1016.9
20260509164719 18 53 9.7 17.7 0.00 0.00 0.00 43 1017.1
20260509163603 18 52 8.0 16.1 0.00 0.00 0.00 42 1017.2
20260509162703 19 52 9.7 19.3 0.00 0.00 0.00 40 1017.0
20260509162021 20 55 8.0 19.3 0.00 0.00 0.00 39 1017.1
20260509160903 20 68 6.4 14.5 0.00 0.00 0.00 40 1017.2
20260509160003 20 64 4.8 19.3 0.00 0.00 0.00 38 1017.1
20260509155403 20 49 9.7 20.9 0.00 0.00 0.00 39 1017.0
20260509154503 21 48 9.7 20.9 0.00 0.00 0.00 38 1017.0
20260509153603 22 35 11.3 20.9 0.00 0.00 0.00 36 1016.9
20260509152703 22 50 8.0 22.5 0.00 0.00 0.00 38 1016.8
20260509152017 21 63 9.7 22.5 0.00 0.00 0.00 37 1016.9
20260509150903 21 46 12.9 20.9 0.00 0.00 0.00 37 1016.8
20260509150222 22 37 14.5 25.7 0.00 0.00 0.00 38 1016.6
20260509145403 21 48 14.5 25.7 0.00 0.00 0.00 38 1016.6
20260509144503 22 51 11.3 25.7 0.00 0.00 0.00 36 1016.7
20260509143603 22 49 11.3 25.7 0.00 0.00 0.00 35 1016.8
20260509142703 22 47 9.7 24.1 0.00 0.00 0.00 37 1016.8
20260509141803 22 43 12.9 24.1 0.00 0.00 0.00 37 1016.8
20260509140903 22 57 8.0 19.3 0.00 0.00 0.00 35 1017.1
20260509140004 22 51 9.7 20.9 0.00 0.00 0.00 35 1017.2
20260509135403 22 51 9.7 20.9 0.00 0.00 0.00 36 1017.3
20260509134503 22 56 9.7 20.9 0.00 0.00 0.00 35 1017.3
20260509133603 21 54 8.0 20.9 0.00 0.00 0.00 36 1017.4
20260509132703 22 46 8.0 20.9 0.00 0.00 0.00 34 1017.4
20260509132018 22 49 8.0 20.9 0.00 0.00 0.00 36 1017.5